FW2418 Weather Reports


time (UTC)temp
C
wind
direction
speed
KPH
gust
KPH
rain 1hr
cm
rain 24hr
cm
rain mn
cm
humidity
%
barometer
mb
20260507090059 18 153 0.0 0.0 0.00 0.00 0.00 93 1012.3
20260507085058 18 154 0.0 0.0 0.00 0.00 0.00 93 1012.0
20260507084057 18 153 0.0 0.0 0.00 0.00 0.00 92 1012.3
20260507083056 18 154 0.0 0.0 0.00 0.00 0.00 92 1012.3
20260507082055 18 154 0.0 0.0 0.00 0.00 0.00 91 1012.3
20260507081054 18 153 0.0 0.0 0.00 0.00 0.00 91 1012.3
20260507080053 18 153 0.0 0.0 0.00 0.00 0.00 90 1012.3
20260507075052 18 153 0.0 0.0 0.00 0.00 0.00 90 1012.3
20260507074020 19 153 0.0 0.0 0.00 0.00 0.00 90 1012.3
20260507072948 19 154 0.0 0.0 0.00 0.00 0.00 88 1012.3
20260507071947 19 153 0.0 0.0 0.00 0.00 0.00 88 1012.3
20260507070946 20 153 0.0 0.0 0.00 0.00 0.00 87 1012.7
20260507065945 20 154 0.0 0.0 0.00 0.00 0.00 87 1012.7
20260507064944 20 153 0.0 0.0 0.00 0.00 0.00 84 1013.0
20260507063943 20 154 0.0 0.0 0.00 0.00 0.00 83 1013.0
20260507062942 21 154 0.0 0.0 0.00 0.00 0.00 82 1013.3
20260507061942 21 153 0.0 0.0 0.00 0.00 0.00 81 1013.3
20260507060941 21 154 0.0 0.0 0.00 0.00 0.00 80 1013.3
20260507055909 22 153 0.0 0.0 0.00 0.00 0.00 76 1013.3
20260507054908 22 154 0.0 1.6 0.00 0.00 0.00 75 1013.3
20260507053908 22 153 0.0 1.6 0.00 0.00 0.00 73 1013.7
20260507052906 23 146 0.0 6.4 0.00 0.00 0.00 72 1013.7
20260507051905 23 160 0.0 6.4 0.00 0.00 0.00 71 1013.7
20260507050904 22 204 1.6 3.2 0.00 0.00 0.00 73 1013.7
20260507045903 22 153 1.6 3.2 0.00 0.00 0.00 75 1013.7
20260507044902 22 150 0.0 1.6 0.00 0.00 0.00 76 1013.7
20260507043759 22 141 0.0 3.2 0.00 0.00 0.00 77 1013.7
20260507042758 22 144 1.6 3.2 0.00 0.00 0.00 79 1014.0
20260507041757 22 172 0.0 0.0 0.00 0.00 0.00 79 1014.0
20260507040757 22 172 0.0 0.0 0.00 0.00 0.00 79 1014.0
20260507035756 22 172 0.0 0.0 0.00 0.00 0.00 78 1014.0
20260507034755 22 172 0.0 1.6 0.00 0.00 0.00 77 1013.7
20260507033754 22 172 0.0 1.6 0.00 0.00 0.00 76 1014.0
20260507032753 23 172 0.0 0.0 0.00 0.00 0.00 76 1014.0
20260507031752 23 172 0.0 0.0 0.00 0.00 0.00 74 1014.0
20260507030751 23 182 0.0 3.2 0.00 0.00 0.00 73 1014.0
20260507025750 23 162 1.6 3.2 0.00 0.00 0.00 73 1014.0
20260507024749 23 170 0.0 1.6 0.00 0.00 0.00 71 1014.0
20260507023748 24 183 0.0 3.2 0.00 0.00 0.00 69 1014.0
20260507022645 24 156 0.0 3.2 0.00 0.00 0.00 68 1013.7
20260507021644 24 282 1.6 3.2 0.00 0.00 0.00 68 1013.7
20260507020643 25 181 0.0 3.2 0.00 0.00 0.00 67 1013.3
20260507015642 25 181 1.6 4.8 0.00 0.00 0.00 66 1013.3
20260507014610 25 148 1.6 6.4 0.00 0.00 0.00 64 1013.3
20260507013507 25 127 1.6 8.0 0.00 0.00 0.00 64 1013.3
20260507012506 26 163 3.2 8.0 0.00 0.00 0.00 62 1013.0
20260507011505 26 350 0.0 8.0 0.00 0.00 0.00 61 1013.0
20260507010505 26 145 3.2 8.0 0.00 0.00 0.00 59 1013.0
20260507005503 26 186 3.2 9.7 0.00 0.00 0.00 59 1013.0
20260507004502 27 80 1.6 12.9 0.00 0.00 0.00 58 1013.0
20260507003502 27 147 1.6 14.5 0.00 0.00 0.00 57 1012.6
20260507002500 27 129 1.6 9.7 0.00 0.00 0.00 57 1012.6
20260507001459 27 144 3.2 12.9 0.00 0.00 0.00 57 1012.6
20260507000459 28 154 3.2 12.9 0.00 0.00 0.00 56 1012.6
20260506235426 28 142 1.6 11.3 0.00 0.00 0.00 56 1012.6
20260506234425 28 169 3.2 12.9 0.00 0.00 0.00 55 1012.3
20260506233424 29 173 1.6 14.5 0.00 0.00 0.00 54 1012.3
20260506232424 30 118 4.8 14.5 0.00 0.00 0.00 53 1012.3
20260506231422 30 154 3.2 11.3 0.00 0.00 0.00 53 1012.3
20260506230421 30 179 4.8 16.1 0.00 0.00 0.00 52 1012.3
20260506225350 30 187 6.4 16.1 0.00 0.00 0.00 51 1012.3
20260506224349 31 153 4.8 19.3 0.00 0.00 0.00 51 1012.3
20260506223348 31 163 3.2 12.9 0.00 0.00 0.00 53 1012.3
20260506222347 31 119 3.2 14.5 0.00 0.00 0.00 52 1012.3
20260506221346 32 103 3.2 8.0 0.00 0.00 0.00 49 1012.3
20260506220345 32 133 4.8 9.7 0.00 0.00 0.00 42 1012.3
20260506215344 32 110 1.6 9.7 0.00 0.00 0.00 41 1012.3
20260506214343 32 220 1.6 9.7 0.00 0.00 0.00 41 1012.3
20260506213342 33 182 3.2 9.7 0.00 0.00 0.00 42 1012.3
20260506212341 32 207 1.6 8.0 0.00 0.00 0.00 43 1012.3
20260506211340 32 167 3.2 9.7 0.00 0.00 0.00 42 1012.3
20260506210308 32 252 1.6 12.9 0.00 0.00 0.00 42 1012.3
20260506205307 33 187 3.2 12.9 0.00 0.00 0.00 41 1012.3
20260506204306 33 196 3.2 8.0 0.00 0.00 0.00 41 1012.3
20260506203203 33 256 1.6 8.0 0.00 0.00 0.00 41 1012.6
20260506202202 33 195 1.6 11.3 0.00 0.00 0.00 40 1012.6
20260506201201 33 178 3.2 11.3 0.00 0.00 0.00 39 1012.6
20260506200200 33 161 4.8 9.7 0.00 0.00 0.00 39 1012.6
20260506195159 34 187 1.6 9.7 0.00 0.00 0.00 39 1012.6
20260506194158 34 177 4.8 11.3 0.00 0.00 0.00 37 1013.0
20260506193157 33 176 4.8 11.3 0.00 0.00 0.00 38 1013.0
20260506192156 33 178 3.2 12.9 0.00 0.00 0.00 39 1013.0
20260506191155 33 234 3.2 12.9 0.00 0.00 0.00 42 1013.3
20260506190154 33 157 1.6 12.9 0.00 0.00 0.00 42 1013.3
20260506185153 33 201 3.2 9.7 0.00 0.00 0.00 42 1013.3
20260506184153 33 285 3.2 9.7 0.00 0.00 0.00 41 1013.7
20260506183120 33 183 1.6 9.7 0.00 0.00 0.00 42 1013.7
20260506182119 33 150 1.6 11.3 0.00 0.00 0.00 44 1013.7
20260506181118 33 152 1.6 11.3 0.00 0.00 0.00 45 1014.0
20260506180118 33 199 3.2 9.7 0.00 0.00 0.00 45 1014.0
20260506175117 33 19 3.2 12.9 0.00 0.00 0.00 45 1014.0
20260506174115 33 115 4.8 12.9 0.00 0.00 0.00 46 1014.3
20260506173115 32 143 3.2 9.7 0.00 0.00 0.00 48 1014.3
20260506172114 32 112 3.2 11.3 0.00 0.00 0.00 50 1014.3
20260506171113 32 256 1.6 11.3 0.00 0.00 0.00 50 1014.7
20260506170112 32 139 3.2 8.0 0.00 0.00 0.00 50 1014.7
20260506165111 31 183 4.8 9.7 0.00 0.00 0.00 50 1015.0
20260506164039 31 170 3.2 9.7 0.00 0.00 0.00 51 1015.0
20260506163007 31 155 1.6 12.9 0.00 0.00 0.00 51 1015.0
20260506161935 30 188 3.2 12.9 0.00 0.00 0.00 52 1015.0
20260506160934 30 159 3.2 9.7 0.00 0.00 0.00 53 1015.0
20260506155933 30 172 3.2 9.7 0.00 0.00 0.00 56 1015.4
20260506154932 30 177 1.6 11.3 0.00 0.00 0.00 57 1015.3
20260506153931 30 137 4.8 11.3 0.00 0.00 0.00 58 1015.3
20260506152930 29 176 1.6 12.9 0.00 0.00 0.00 63 1015.0
20260506151929 28 227 3.2 14.5 0.00 0.00 0.00 65 1015.0
20260506150856 28 165 3.2 14.5 0.00 0.00 0.00 65 1015.0
20260506145824 28 189 3.2 8.0 0.00 0.00 0.00 66 1015.0
20260506144823 28 177 3.2 12.9 0.00 0.00 0.00 69 1015.3
20260506143822 27 178 1.6 14.5 0.00 0.00 0.00 71 1015.0
20260506142750 27 140 3.2 11.3 0.00 0.00 0.00 72 1015.0
20260506141749 27 186 4.8 12.9 0.00 0.00 0.00 72 1015.0
20260506140748 26 181 6.4 11.3 0.00 0.00 0.00 75 1015.3
20260506135747 26 186 3.2 11.3 0.00 0.00 0.00 76 1015.0
20260506134746 26 184 4.8 11.3 0.00 0.00 0.00 78 1015.0
20260506133715 26 206 1.6 9.7 0.00 0.00 0.00 79 1015.0
20260506132713 25 160 1.6 8.0 0.00 0.00 0.00 80 1014.7
20260506131712 25 163 4.8 8.0 0.00 0.00 0.00 82 1015.0
20260506130711 24 163 3.2 8.0 0.00 0.00 0.00 84 1015.0
20260506125710 23 169 3.2 8.0 0.00 0.00 0.00 86 1014.7
20260506124709 22 182 3.2 4.8 0.00 0.00 0.00 89 1014.7
20260506123708 21 167 0.0 1.6 0.00 0.00 0.00 92 1014.7
20260506122707 21 156 0.0 0.0 0.00 0.00 0.00 93 1014.7
20260506121604 20 124 0.0 0.0 0.00 0.00 0.00 94 1014.6
20260506120603 18 124 0.0 0.0 0.00 0.00 0.00 97 1014.6
20260506115602 17 124 0.0 0.0 0.00 0.00 0.00 98 1014.3
20260506114601 17 124 0.0 0.0 0.00 0.00 0.00 98 1014.3
20260506113600 16 124 0.0 0.0 0.00 0.00 0.00 98 1014.3
20260506112559 16 124 0.0 0.0 0.00 0.00 0.00 97 1014.3
20260506111559 16 124 0.0 0.0 0.00 0.00 0.00 98 1014.0
20260506110558 15 124 0.0 0.0 0.00 0.00 0.00 97 1014.0
20260506105557 15 124 0.0 0.0 0.00 0.00 0.00 97 1013.6
20260506104556 15 124 0.0 0.0 0.00 0.00 0.00 97 1013.6
20260506103555 15 124 0.0 0.0 0.00 0.00 0.00 97 1013.6
20260506102554 15 124 0.0 0.0 0.00 0.00 0.00 97 1013.6
20260506101553 15 124 0.0 0.0 0.00 0.00 0.00 97 1013.6
20260506100553 15 124 0.0 0.0 0.00 0.00 0.00 97 1013.6
20260506095521 15 124 0.0 0.0 0.00 0.00 0.00 97 1013.6
20260506094520 15 124 0.0 0.0 0.00 0.00 0.00 96 1013.6
20260506093519 15 124 0.0 0.0 0.00 0.00 0.00 97 1013.3
20260506092518 15 124 0.0 0.0 0.00 0.00 0.00 97 1013.6
20260506091517 15 124 0.0 0.0 0.00 0.00 0.00 96 1013.3